Change the Weather History Date:

Tuesday, March 5, 2013

  Actual Average (KGEV) Record (KGEV)
Temperature  
Mean Temperature 39 °F -  
Max Temperature 45 °F 56 °F 72 °F (1976)
Min Temperature 33 °F 32 °F 7 °F (1978)
Degree Days  
Heating Degree Days 26    
Moisture  
Dew Point 31 °F    
Average Humidity 75    
Maximum Humidity 100    
Minimum Humidity 41    
Precipitation  
Precipitation 0.74 in - - ()
Sea Level Pressure  
Sea Level Pressure 29.85 in    
Wind  
Wind Speed 4 mph (ENE)    
Max Wind Speed 30 mph    
Max Gust Speed 39 mph    
Visibility 8 miles    
Events Rain , Snow    
Averages and records for this station are not official NWS values.
T = Trace of Precipitation, MM = Missing Value Source: NWS Daily Summary

Daily Weather History Graph

Daily Weather History Graph

Search for Another Location

Airport or City:

Trip Planner

Search our weather history database for the weather conditions in past years. The results will help you decide how hot, cold, wet, or windy it might be!

Date:

Astronomy

Mar. 05, 2013 Rise Set
Actual Time 6:50 AM EST 6:23 PM EST
Civil Twilight 6:24 AM EST 6:49 PM EST
Nautical Twilight 5:54 AM EST 7:19 PM EST
Astronomical Twilight 5:24 AM EST 7:49 PM EST
Moon 1:54 AM EST (3/5) 12:07 PM EST (3/5)
Length of Visible Light 12h 25m
Length of Day
11h 33m
Last Quarter, 41% of the Moon is Illuminated
Mar 5
Last Quarter
Mar 11
New
Mar 19
First Quarter
Mar 27
Full
Apr 3
Last Quarter

Hourly Weather History & Observations

Time (EST) Temp. Windchill Dew Point Humidity Pressure Visibility Wind Dir Wind Speed Gust Speed Precip Events Conditions
12:35 AM 36.3 °F - 19.9 °F 52% 30.02 in 10.0 mi Calm Calm - N/A   Mostly Cloudy
12:55 AM 36.0 °F 32.1 °F 21.9 °F 57% 30.02 in 10.0 mi West 4.6 mph - N/A   Overcast
1:15 AM 36.5 °F 33.9 °F 21.2 °F 54% 30.02 in 10.0 mi West 3.5 mph - N/A   Overcast
1:35 AM 36.3 °F - 23.0 °F 59% 30.03 in 10.0 mi Calm Calm - N/A   Overcast
1:55 AM 36.5 °F - 22.6 °F 57% 30.03 in 10.0 mi Calm Calm - N/A   Overcast
2:15 AM 36.5 °F - 23.5 °F 59% 30.02 in 10.0 mi Calm Calm - N/A   Overcast
2:35 AM 37.0 °F - 21.9 °F 54% 30.02 in 10.0 mi Calm Calm - N/A   Overcast
2:55 AM 36.0 °F - 24.4 °F 63% 30.02 in 10.0 mi Calm Calm - N/A   Overcast
3:15 AM 35.6 °F - 24.8 °F 65% 30.01 in 10.0 mi Calm Calm - N/A   Overcast
3:35 AM 34.9 °F - 26.1 °F 70% 30.00 in 10.0 mi Calm Calm - N/A   Overcast
3:55 AM 34.9 °F - 25.5 °F 69% 30.00 in 10.0 mi Calm Calm - N/A   Mostly Cloudy
4:15 AM 34.5 °F - 24.8 °F 68% 30.00 in 10.0 mi Calm Calm - N/A   Scattered Clouds
4:35 AM 34.5 °F - 24.4 °F 67% 30.01 in 10.0 mi Calm Calm - N/A   Scattered Clouds
4:55 AM 34.0 °F - 25.5 °F 71% 30.00 in 10.0 mi Calm Calm - N/A   Mostly Cloudy
5:15 AM 33.8 °F - 25.3 °F 71% 30.00 in 10.0 mi Calm Calm - N/A   Overcast
5:35 AM 34.5 °F 31.6 °F 24.4 °F 67% 30.00 in 10.0 mi East 3.5 mph - N/A   Overcast
5:55 AM 35.2 °F 31.2 °F 23.7 °F 63% 30.00 in 10.0 mi ENE 4.6 mph - N/A   Overcast
6:15 AM 35.6 °F 32.8 °F 23.4 °F 61% 30.00 in 10.0 mi East 3.5 mph - N/A   Overcast
6:35 AM 35.1 °F - 24.8 °F 66% 30.00 in 10.0 mi Calm Calm - N/A   Overcast
6:55 AM 36.0 °F 32.1 °F 23.2 °F 60% 29.99 in 10.0 mi East 4.6 mph - N/A   Overcast
7:15 AM 36.1 °F 33.5 °F 23.5 °F 60% 30.00 in 10.0 mi ESE 3.5 mph - N/A   Overcast
7:35 AM 36.0 °F 33.3 °F 23.9 °F 62% 29.99 in 10.0 mi East 3.5 mph - N/A   Overcast
8:15 AM 37.4 °F 33.8 °F 23.2 °F 57% 29.99 in 10.0 mi East 4.6 mph - N/A   Overcast
8:35 AM 37.6 °F 35.1 °F 23.4 °F 57% 29.98 in 10.0 mi ENE 3.5 mph - N/A   Overcast
8:55 AM 37.9 °F 34.4 °F 23.4 °F 56% 29.98 in 10.0 mi ENE 4.6 mph - N/A   Overcast
9:15 AM 38.3 °F 34.8 °F 23.0 °F 54% 29.97 in 10.0 mi NE 4.6 mph - N/A   Overcast
9:35 AM 38.7 °F 33.6 °F 21.9 °F 51% 29.96 in 10.0 mi NNE 6.9 mph - N/A   Overcast
9:55 AM 39.6 °F 37.4 °F 20.7 °F 47% 29.96 in 10.0 mi ENE 3.5 mph - N/A   Overcast
10:15 AM 41.7 °F 39.8 °F 19.9 °F 42% 29.96 in 10.0 mi ENE 3.5 mph - N/A   Overcast
10:35 AM 41.7 °F - 19.6 °F 41% 29.96 in 10.0 mi Calm Calm - N/A   Overcast
10:55 AM 40.8 °F - 23.0 °F 49% 29.95 in 7.0 mi Calm Calm - N/A Rain Rain
11:15 AM 40.5 °F - 28.8 °F 63% 29.94 in 10.0 mi Calm Calm - 0.01 in Rain Light Rain
11:35 AM 40.5 °F 37.3 °F 30.2 °F 67% 29.93 in 10.0 mi SE 4.6 mph - 0.01 in   Light Drizzle
11:55 AM 41.7 °F 38.8 °F 32.4 °F 69% 29.91 in 10.0 mi ENE 4.6 mph - 0.02 in Rain Light Rain
12:15 PM 42.8 °F 38.6 °F 31.8 °F 65% 29.90 in 10.0 mi ENE 6.9 mph - N/A   Overcast
12:35 PM 43.2 °F 39.0 °F 32.0 °F 65% 29.88 in 10.0 mi East 6.9 mph - N/A   Overcast
12:55 PM 44.6 °F 40.7 °F 32.5 °F 63% 29.87 in 10.0 mi NE 6.9 mph - N/A   Overcast
1:15 PM 44.2 °F 39.7 °F 32.0 °F 62% 29.84 in 10.0 mi NE 8.1 mph - N/A   Overcast
1:35 PM 45.1 °F 42.8 °F 32.2 °F 60% 29.83 in 10.0 mi ENE 4.6 mph - N/A Rain Light Rain
1:55 PM 45.5 °F 42.5 °F 32.0 °F 59% 29.83 in 10.0 mi ENE 5.8 mph - N/A   Overcast
2:15 PM 45.7 °F 44.4 °F 32.0 °F 59% 29.83 in 10.0 mi East 3.5 mph - N/A   Overcast
2:35 PM 44.1 °F - 35.1 °F 71% 29.83 in 5.0 mi Calm Calm - 0.04 in Rain Rain
2:55 PM 42.6 °F 40.9 °F 37.8 °F 83% 29.82 in 2.5 mi NE 3.5 mph - 0.15 in Rain Rain
3:15 PM 42.1 °F 40.2 °F 38.1 °F 86% 29.81 in 5.0 mi East 3.5 mph - 0.06 in Rain Rain
3:35 PM 42.1 °F 37.7 °F 40.8 °F 95% 29.79 in 7.0 mi ENE 6.9 mph - 0.08 in Rain Light Rain
3:55 PM 41.9 °F 37.5 °F 39.6 °F 91% 29.77 in 10.0 mi East 6.9 mph - 0.09 in Rain Light Rain
4:15 PM 41.5 °F 37.8 °F 40.1 °F 95% 29.77 in 7.0 mi ENE 5.8 mph - 0.02 in Rain Light Rain
4:35 PM 41.0 °F 35.2 °F 40.5 °F 98% 29.74 in 5.0 mi East 9.2 mph - 0.04 in Rain Light Rain
4:55 PM 41.0 °F 36.4 °F 41.0 °F 100% 29.73 in 7.0 mi East 6.9 mph - 0.05 in Rain Light Rain
5:15 PM 41.2 °F 35.5 °F 41.2 °F 100% 29.72 in 7.0 mi ENE 9.2 mph - N/A Rain Light Rain
5:35 PM 41.9 °F 34.0 °F 41.9 °F 100% 29.69 in 4.0 mi East 16.1 mph - 0.01 in Rain Rain
5:55 PM 41.4 °F 33.3 °F 41.4 °F 100% 29.67 in 4.0 mi ENE 16.1 mph 20.7 mph 0.04 in Rain Light Rain
6:15 PM 41.2 °F 35.0 °F 41.2 °F 100% 29.69 in 7.0 mi NE 10.4 mph - N/A Rain Light Rain
6:35 PM 41.0 °F 35.2 °F 41.0 °F 100% 29.70 in 4.0 mi NE 9.2 mph - 0.09 in Rain Rain
6:55 PM 40.6 °F 34.8 °F 40.6 °F 100% 29.69 in 5.0 mi East 9.2 mph - 0.13 in Rain Light Rain
7:15 PM 40.3 °F 33.9 °F 40.3 °F 100% 29.68 in 5.0 mi ENE 10.4 mph - 0.01 in Rain Light Rain
7:35 PM 40.1 °F 35.3 °F 40.1 °F 100% 29.69 in 7.0 mi ESE 6.9 mph - 0.03 in Rain Light Rain
7:55 PM 39.7 °F 33.7 °F 39.7 °F 100% 29.66 in 5.0 mi ENE 9.2 mph - 0.06 in Rain Light Rain
8:15 PM 39.6 °F 33.5 °F 39.6 °F 100% 29.64 in 10.0 mi ENE 9.2 mph - 0.01 in Rain Light Rain
8:35 PM 39.6 °F 33.0 °F 39.6 °F 100% 29.62 in 10.0 mi ENE 10.4 mph - 0.02 in Rain Light Rain
8:55 PM 39.4 °F 32.7 °F 39.4 °F 100% 29.61 in 10.0 mi NE 10.4 mph - 0.02 in   Overcast
9:15 PM 39.2 °F 33.6 °F 39.2 °F 100% 29.61 in 7.0 mi ENE 8.1 mph - 0.01 in Rain Light Rain
9:35 PM 39.2 °F 35.0 °F 39.2 °F 100% 29.61 in 3.0 mi ENE 5.8 mph - 0.07 in Rain Rain
9:55 PM 39.2 °F 37.0 °F 39.2 °F 100% 29.62 in 2.5 mi NW 3.5 mph - 0.12 in Rain Rain
10:15 PM 39.2 °F - 39.2 °F 100% 29.62 in 4.0 mi Calm Calm - 0.05 in Rain Light Rain
10:35 PM 42.4 °F 33.5 °F 41.5 °F 97% 29.61 in 10.0 mi WSW 20.7 mph 27.6 mph 0.05 in Rain Rain
10:55 PM 41.2 °F 30.1 °F 37.8 °F 88% 29.61 in 5.0 mi WSW 29.9 mph 39.1 mph 0.06 in Rain Light Rain
11:15 PM 39.2 °F 28.5 °F 37.4 °F 93% 29.61 in 7.0 mi WSW 24.2 mph 33.4 mph N/A Rain Light Rain
11:35 PM 37.8 °F 28.3 °F 37.4 °F 99% 29.63 in 7.0 mi West 17.3 mph 24.2 mph N/A Rain Light Rain
11:55 PM 36.1 °F 26.5 °F 36.1 °F 100% 29.62 in 2.0 mi WNW 16.1 mph 24.2 mph N/A Snow Light Snow